Ukiah, CA

4:11 AM PST on November 13, 2019 (GMT -0800)
Ukiah Municipal

Weather History for KUKI - October, 2019

Change the Weather History Date:

Monday, October 21, 2019

  Actual Average Record
Temperature  
Mean Temperature 64 °F 59 °F  
Max Temperature 84 °F 75 °F 96 °F (1929)
Min Temperature 44 °F 43 °F 26 °F (1906)
Degree Days  
Heating Degree Days 0 6  
Month to date heating degree days 106 86  
Since 1 July heating degree days 139 119  
Cooling Degree Days 0 0  
Month to date cooling degree days 7 19  
Year to date cooling degree days 1125 832  
Growing Degree Days 14 (Base 50)    
Moisture  
Dew Point 44 °F    
Average Humidity 58    
Maximum Humidity 92    
Minimum Humidity 20    
Precipitation  
Precipitation 0.00 in 0.07 in 1.44 in (1985)
Month to date precipitation 0.05 0.87  
Year to date precipitation 35.12 24.84  
Snow  
Snow 0.00 in - - ()
Month to date snowfall 0.0  
Since 1 July snowfall 0.0  
Since 1 September snowfall 0.0  
Snow Depth 0.00 in    
Sea Level Pressure  
Sea Level Pressure 30.19 in    
Wind  
Wind Speed 1 mph ()    
Max Wind Speed 8 mph    
Max Gust Speed 13 mph    
Visibility 10.0 miles    
Events      
T = Trace of Precipitation, MM = Missing Value Source: Averaged Metar Reports

Daily Weather History Graph

Daily Weather History Graph

Search for Another Location

Airport or City:

Astronomy

Oct. 21, 2019 Rise Set
Actual Time 7:28 AM PDT 6:25 PM PDT
Civil Twilight 7:01 AM PDT 6:52 PM PDT
Nautical Twilight 6:30 AM PDT 7:24 PM PDT
Astronomical Twilight 5:59 AM PDT 7:54 PM PDT
Moon No Moon Rise 2:49 PM PDT (10/21)
Length of Visible Light 11h 51m
Length of Day
10h 57m
Waning Gibbous, 47% of the Moon is Illuminated
Oct 21
Waning Gibbous
Oct 27
New
Nov 4
First Quarter
Nov 12
Full
Nov 19
Last Quarter

Hourly Weather History & Observations

Time (PDT) Temp. Dew Point Humidity Pressure Visibility Wind Dir Wind Speed Gust Speed Precip Events Conditions
12:56 AM 52.0 °F 45.0 °F 77% 30.17 in 10.0 mi Calm Calm - N/A   Clear
1:56 AM 52.0 °F 45.0 °F 77% 30.18 in 10.0 mi Calm Calm - N/A   Clear
2:56 AM 50.0 °F 45.0 °F 83% 30.17 in 10.0 mi Calm Calm - N/A   Clear
3:56 AM 48.0 °F 43.0 °F 83% 30.17 in 10.0 mi Calm Calm - N/A   Clear
4:56 AM 48.9 °F 44.1 °F 83% 30.17 in 10.0 mi Calm Calm - N/A   Clear
5:56 AM 48.0 °F 43.0 °F 83% 30.19 in 10.0 mi Calm Calm - N/A   Clear
6:56 AM 46.9 °F 43.0 °F 86% 30.20 in 10.0 mi Calm Calm - N/A   Clear
7:56 AM 45.0 °F 42.1 °F 90% 30.22 in 10.0 mi Calm Calm - N/A   Clear
8:56 AM 52.0 °F 46.0 °F 80% 30.24 in 10.0 mi Calm Calm - N/A   Clear
9:56 AM 59.0 °F 46.9 °F 64% 30.24 in 10.0 mi Calm Calm - N/A   Clear
10:56 AM 66.0 °F 45.0 °F 47% 30.23 in 10.0 mi Calm Calm - N/A   Clear
11:56 AM 72.0 °F 43.0 °F 35% 30.21 in 10.0 mi North 4.6 mph - N/A   Clear
12:56 PM 77.0 °F 39.9 °F 26% 30.19 in 10.0 mi North 4.6 mph - N/A   Clear
1:56 PM 81.0 °F 39.9 °F 23% 30.16 in 10.0 mi Variable 4.6 mph - N/A   Clear
2:56 PM 84.0 °F 39.9 °F 21% 30.13 in 10.0 mi NNW 4.6 mph - N/A   Clear
3:56 PM 84.0 °F 41.0 °F 22% 30.13 in 10.0 mi WSW 4.6 mph - N/A   Clear
4:56 PM 82.9 °F 44.1 °F 25% 30.13 in 10.0 mi WNW 5.8 mph - N/A   Clear
5:56 PM 77.0 °F 46.0 °F 33% 30.14 in 10.0 mi NW 4.6 mph - N/A   Clear
6:56 PM 70.0 °F 46.9 °F 44% 30.16 in 10.0 mi Calm Calm - N/A   Clear
7:56 PM 66.0 °F 46.9 °F 50% 30.18 in 10.0 mi Calm Calm - N/A   Clear
8:56 PM 64.0 °F 48.0 °F 56% 30.19 in 10.0 mi Calm Calm - N/A   Clear
9:56 PM 60.1 °F 46.9 °F 62% 30.21 in 10.0 mi Calm Calm - N/A   Clear
10:56 PM 57.9 °F 46.9 °F 67% 30.22 in 10.0 mi Calm Calm - N/A   Clear
11:56 PM 57.0 °F 46.9 °F 69% 30.22 in 10.0 mi Calm Calm - N/A   Clear